Time,TemperatureF,DewpointF,PressureIn,WindDirection,WindDirectionDegrees,WindSpeedMPH,WindSpeedGustMPH,Humidity,HourlyPrecipIn,Conditions,Clouds,dailyrainin,SoftwareType,DateUTC
2013-07-18 00:02:00,73.0,69.0,29.99,East,101,2.0,10.0,87,0.00,,,0.00,,2013-07-18 05:02:00,
2013-07-18 00:11:00,73.0,69.0,29.99,NE,35,2.0,9.0,88,0.00,,,0.00,,2013-07-18 05:11:00,
2013-07-18 00:21:00,72.0,69.0,29.98,NE,51,4.0,8.0,89,0.00,,,0.00,,2013-07-18 05:21:00,
2013-07-18 00:32:00,72.0,69.0,29.98,NNE,19,3.0,9.0,89,0.00,,,0.00,,2013-07-18 05:32:00,
2013-07-18 00:42:00,72.0,69.0,29.98,ENE,78,1.0,7.0,90,0.00,,,0.00,,2013-07-18 05:42:00,
2013-07-18 00:52:00,72.0,69.0,29.98,SSE,157,1.0,5.0,90,0.00,,,0.00,,2013-07-18 05:52:00,
2013-07-18 01:01:00,72.0,69.0,29.97,East,84,1.0,4.0,90,0.00,,,0.00,,2013-07-18 06:01:00,
2013-07-18 01:11:00,72.0,69.0,29.97,ESE,103,0.0,5.0,90,0.00,,,0.00,,2013-07-18 06:11:00,
2013-07-18 01:22:00,71.0,68.0,29.96,South,170,2.0,6.0,90,0.00,,,0.00,,2013-07-18 06:22:00,
2013-07-18 01:32:00,71.0,68.0,29.96,NE,55,0.0,5.0,90,0.00,,,0.00,,2013-07-18 06:32:00,
2013-07-18 01:43:00,71.0,68.0,29.95,East,86,1.0,5.0,90,0.00,,,0.00,,2013-07-18 06:43:00,
2013-07-18 01:52:00,71.0,68.0,29.95,SE,130,1.0,3.0,90,0.00,,,0.00,,2013-07-18 06:52:00,
2013-07-18 02:01:00,71.0,68.0,29.94,ESE,104,0.0,4.0,90,0.00,,,0.00,,2013-07-18 07:01:00,
2013-07-18 02:11:00,71.0,68.0,29.93,ESE,104,0.0,2.0,90,0.00,,,0.00,,2013-07-18 07:11:00,
2013-07-18 02:22:00,71.0,68.0,29.93,SE,134,2.0,4.0,90,0.00,,,0.00,,2013-07-18 07:22:00,
2013-07-18 02:32:00,71.0,68.0,29.93,SE,127,1.0,3.0,90,0.00,,,0.00,,2013-07-18 07:32:00,
2013-07-18 02:42:00,71.0,68.0,29.92,ESE,123,0.0,3.0,90,0.00,,,0.00,,2013-07-18 07:42:00,
2013-07-18 02:52:00,71.0,68.0,29.91,ESE,123,1.0,4.0,90,0.00,,,0.00,,2013-07-18 07:52:00,
2013-07-18 03:01:00,70.0,67.0,29.91,ESE,112,1.0,3.0,90,0.00,,,0.00,,2013-07-18 08:01:00,
2013-07-18 03:11:00,70.0,67.0,29.90,SE,124,1.0,4.0,90,0.00,,,0.00,,2013-07-18 08:11:00,
2013-07-18 03:21:00,70.0,67.0,29.90,SE,130,0.0,4.0,90,0.00,,,0.00,,2013-07-18 08:21:00,
2013-07-18 03:32:00,70.0,67.0,29.90,SE,133,1.0,4.0,89,0.00,,,0.00,,2013-07-18 08:32:00,
2013-07-18 03:51:00,70.0,67.0,29.89,SE,133,0.0,2.0,89,0.00,,,0.00,,2013-07-18 08:51:00,
2013-07-18 04:01:00,70.0,67.0,29.88,SE,133,0.0,1.0,89,0.00,,,0.00,,2013-07-18 09:01:00,
2013-07-18 04:21:00,69.0,66.0,29.88,SE,133,0.0,1.0,89,0.00,,,0.00,,2013-07-18 09:21:00,
2013-07-18 04:31:00,69.0,66.0,29.87,SE,133,0.0,2.0,90,0.00,,,0.00,,2013-07-18 09:31:00,
2013-07-18 04:41:00,69.0,66.0,29.87,SE,133,0.0,0.0,89,0.00,,,0.00,,2013-07-18 09:41:00,
2013-07-18 04:51:00,69.0,66.0,29.86,SE,133,0.0,0.0,90,0.00,,,0.00,,2013-07-18 09:51:00,
2013-07-18 05:01:00,68.0,65.0,29.86,SE,133,0.0,1.0,90,0.00,,,0.00,,2013-07-18 10:01:00,
2013-07-18 05:11:00,68.0,65.0,29.86,SE,133,1.0,3.0,91,0.00,,,0.00,,2013-07-18 10:11:00,
2013-07-18 05:21:00,68.0,65.0,29.86,SE,133,0.0,2.0,91,0.00,,,0.00,,2013-07-18 10:21:00,
2013-07-18 05:32:00,68.0,65.0,29.86,SE,133,0.0,1.0,91,0.00,,,0.00,,2013-07-18 10:32:00,
2013-07-18 05:43:00,68.0,65.0,29.86,SE,133,0.0,0.0,91,0.00,,,0.00,,2013-07-18 10:43:00,
2013-07-18 05:52:00,67.0,64.0,29.85,SE,133,0.0,2.0,91,0.00,,,0.00,,2013-07-18 10:52:00,
2013-07-18 06:01:00,67.0,65.0,29.85,SE,133,0.0,2.0,92,0.00,,,0.00,,2013-07-18 11:01:00,
2013-07-18 06:11:00,67.0,65.0,29.85,SE,133,0.0,2.0,92,0.00,,,0.00,,2013-07-18 11:11:00,
2013-07-18 06:22:00,67.0,65.0,29.85,SE,133,0.0,2.0,92,0.00,,,0.00,,2013-07-18 11:22:00,
2013-07-18 06:32:00,67.0,65.0,29.85,SE,133,0.0,0.0,92,0.00,,,0.00,,2013-07-18 11:32:00,
2013-07-18 06:43:00,67.0,65.0,29.85,SE,133,0.0,0.0,92,0.00,,,0.00,,2013-07-18 11:43:00,
2013-07-18 06:52:00,67.0,65.0,29.85,SE,133,0.0,1.0,92,0.00,,,0.00,,2013-07-18 11:52:00,
2013-07-18 07:01:00,66.0,64.0,29.87,SE,133,2.0,7.0,92,0.00,,,0.00,,2013-07-18 12:01:00,
2013-07-18 07:11:00,67.0,65.0,29.86,North,355,3.0,10.0,93,0.00,,,0.00,,2013-07-18 12:11:00,
2013-07-18 07:22:00,68.0,65.0,29.87,WNW,300,0.0,5.0,90,0.00,,,0.00,,2013-07-18 12:22:00,
2013-07-18 07:32:00,69.0,66.0,29.88,NW,312,0.0,5.0,89,0.00,,,0.00,,2013-07-18 12:32:00,
2013-07-18 07:42:00,69.0,65.0,29.87,NW,313,2.0,3.0,88,0.00,,,0.00,,2013-07-18 12:42:00,
2013-07-18 07:52:00,70.0,66.0,29.87,NW,313,0.0,2.0,88,0.00,,,0.00,,2013-07-18 12:52:00,
2013-07-18 08:01:00,71.0,67.0,29.86,NW,313,0.0,2.0,87,0.00,,,0.00,,2013-07-18 13:01:00,
2013-07-18 08:11:00,72.0,67.0,29.86,NW,313,1.0,3.0,85,0.00,,,0.00,,2013-07-18 13:11:00,
2013-07-18 08:22:00,73.0,68.0,29.87,West,269,2.0,8.0,83,0.00,,,0.00,,2013-07-18 13:22:00,
2013-07-18 08:32:00,73.0,68.0,29.87,WNW,300,2.0,8.0,83,0.00,,,0.00,,2013-07-18 13:32:00,
2013-07-18 08:43:00,73.0,67.0,29.87,NNW,338,2.0,6.0,82,0.00,,,0.00,,2013-07-18 13:43:00,
2013-07-18 08:53:00,73.0,67.0,29.86,NW,309,2.0,6.0,82,0.00,,,0.00,,2013-07-18 13:53:00,
2013-07-18 09:02:00,74.0,68.0,29.86,NNW,327,3.0,5.0,81,0.00,,,0.00,,2013-07-18 14:02:00,
2013-07-18 09:11:00,74.0,67.0,29.86,NW,315,2.0,6.0,80,0.00,,,0.00,,2013-07-18 14:11:00,
2013-07-18 09:22:00,75.0,68.0,29.86,NW,321,1.0,6.0,80,0.00,,,0.00,,2013-07-18 14:22:00,
2013-07-18 09:32:00,76.0,70.0,29.86,NW,320,2.0,5.0,81,0.00,,,0.00,,2013-07-18 14:32:00,
2013-07-18 09:43:00,76.0,69.0,29.86,WNW,286,4.0,7.0,79,0.00,,,0.00,,2013-07-18 14:43:00,
2013-07-18 09:52:00,77.0,70.0,29.86,WNW,291,3.0,9.0,78,0.00,,,0.00,,2013-07-18 14:52:00,
2013-07-18 10:01:00,77.0,70.0,29.86,WNW,300,3.0,8.0,78,0.00,,,0.00,,2013-07-18 15:01:00,
2013-07-18 10:11:00,77.0,70.0,29.86,West,262,3.0,7.0,79,0.00,,,0.00,,2013-07-18 15:11:00,
2013-07-18 10:22:00,78.0,71.0,29.87,West,269,5.0,8.0,78,0.00,,,0.00,,2013-07-18 15:22:00,
2013-07-18 10:32:00,78.0,70.0,29.87,NNW,337,7.0,14.0,77,0.00,,,0.00,,2013-07-18 15:32:00,
2013-07-18 10:42:00,76.0,69.0,29.87,NW,319,6.0,12.0,79,0.00,,,0.00,,2013-07-18 15:42:00,
2013-07-18 10:53:00,76.0,69.0,29.86,NNW,327,4.0,11.0,80,0.00,,,0.00,,2013-07-18 15:53:00,
2013-07-18 11:01:00,77.0,71.0,29.86,NW,324,4.0,10.0,81,0.00,,,0.00,,2013-07-18 16:01:00,
2013-07-18 11:11:00,78.0,71.0,29.85,North,5,3.0,9.0,79,0.00,,,0.00,,2013-07-18 16:11:00,
2013-07-18 11:22:00,79.0,71.0,29.85,NW,306,5.0,9.0,76,0.00,,,0.00,,2013-07-18 16:22:00,
2013-07-18 11:32:00,80.0,71.0,29.85,NW,315,3.0,9.0,74,0.00,,,0.00,,2013-07-18 16:32:00,
2013-07-18 11:42:00,81.0,72.0,29.85,NW,319,5.0,9.0,73,0.00,,,0.00,,2013-07-18 16:42:00,
2013-07-18 11:52:00,82.0,72.0,29.86,WNW,302,5.0,9.0,72,0.00,,,0.00,,2013-07-18 16:52:00,
2013-07-18 12:11:00,82.0,71.0,29.86,WNW,302,8.0,12.0,69,0.00,,,0.00,,2013-07-18 17:11:00,
2013-07-18 12:22:00,83.0,72.0,29.86,NW,315,7.0,13.0,70,0.00,,,0.00,,2013-07-18 17:22:00,
2013-07-18 12:33:00,83.0,72.0,29.86,NW,317,6.0,14.0,69,0.00,,,0.00,,2013-07-18 17:33:00,
2013-07-18 12:43:00,82.0,71.0,29.86,NW,304,7.0,15.0,70,0.00,,,0.00,,2013-07-18 17:43:00,
2013-07-18 12:52:00,82.0,71.0,29.86,NW,322,8.0,13.0,70,0.00,,,0.00,,2013-07-18 17:52:00,
2013-07-18 13:01:00,82.0,72.0,29.86,NNW,333,7.0,13.0,71,0.00,,,0.00,,2013-07-18 18:01:00,
2013-07-18 13:11:00,82.0,72.0,29.86,NW,305,6.0,12.0,71,0.00,,,0.00,,2013-07-18 18:11:00,
2013-07-18 13:22:00,83.0,71.0,29.86,NNW,348,8.0,13.0,68,0.00,,,0.00,,2013-07-18 18:22:00,
2013-07-18 13:32:00,83.0,71.0,29.85,WNW,303,7.0,13.0,68,0.00,,,0.00,,2013-07-18 18:32:00,
2013-07-18 13:43:00,84.0,72.0,29.85,NW,321,8.0,15.0,68,0.00,,,0.00,,2013-07-18 18:43:00,
2013-07-18 13:52:00,84.0,72.0,29.85,West,265,5.0,15.0,67,0.00,,,0.00,,2013-07-18 18:52:00,
2013-07-18 14:01:00,84.0,71.0,29.85,North,360,9.0,15.0,66,0.00,,,0.00,,2013-07-18 19:01:00,
2013-07-18 14:11:00,84.0,71.0,29.85,NNW,330,8.0,16.0,65,0.00,,,0.00,,2013-07-18 19:11:00,
2013-07-18 14:22:00,84.0,70.0,29.85,NNW,329,10.0,17.0,63,0.00,,,0.00,,2013-07-18 19:22:00,
2013-07-18 14:32:00,84.0,70.0,29.85,NW,312,8.0,17.0,64,0.00,,,0.00,,2013-07-18 19:32:00,
2013-07-18 14:43:00,84.0,70.0,29.85,NW,323,7.0,15.0,64,0.00,,,0.00,,2013-07-18 19:43:00,
2013-07-18 14:53:00,85.0,71.0,29.85,North,5,7.0,16.0,64,0.00,,,0.00,,2013-07-18 19:53:00,
2013-07-18 15:01:00,85.0,71.0,29.85,NNW,346,5.0,15.0,64,0.00,,,0.00,,2013-07-18 20:01:00,
2013-07-18 15:11:00,85.0,71.0,29.85,West,279,6.0,16.0,63,0.00,,,0.00,,2013-07-18 20:11:00,
2013-07-18 15:22:00,85.0,71.0,29.85,NNW,333,9.0,17.0,63,0.00,,,0.00,,2013-07-18 20:22:00,
2013-07-18 15:32:00,85.0,71.0,29.84,NNW,343,6.0,13.0,63,0.00,,,0.00,,2013-07-18 20:32:00,
2013-07-18 15:43:00,86.0,72.0,29.84,NNW,338,6.0,13.0,63,0.00,,,0.00,,2013-07-18 20:43:00,
2013-07-18 15:52:00,87.0,72.0,29.84,NW,312,6.0,12.0,61,0.00,,,0.00,,2013-07-18 20:52:00,
2013-07-18 16:01:00,86.0,71.0,29.84,NW,315,8.0,16.0,62,0.00,,,0.00,,2013-07-18 21:01:00,
2013-07-18 16:11:00,86.0,71.0,29.84,NNW,335,9.0,16.0,61,0.00,,,0.00,,2013-07-18 21:11:00,
2013-07-18 16:22:00,86.0,71.0,29.84,NW,315,10.0,17.0,61,0.00,,,0.00,,2013-07-18 21:22:00,
2013-07-18 16:32:00,86.0,71.0,29.84,WNW,286,7.0,17.0,62,0.00,,,0.00,,2013-07-18 21:32:00,
2013-07-18 16:43:00,86.0,71.0,29.84,NNW,338,8.0,17.0,61,0.00,,,0.00,,2013-07-18 21:43:00,
2013-07-18 16:52:00,86.0,71.0,29.83,NNW,330,6.0,14.0,61,0.00,,,0.00,,2013-07-18 21:52:00,
2013-07-18 17:01:00,86.0,71.0,29.83,WSW,238,4.0,13.0,62,0.00,,,0.00,,2013-07-18 22:01:00,
2013-07-18 17:11:00,87.0,72.0,29.83,NW,319,6.0,12.0,61,0.00,,,0.00,,2013-07-18 22:11:00,
2013-07-18 17:22:00,88.0,73.0,29.83,WNW,302,7.0,15.0,61,0.00,,,0.00,,2013-07-18 22:22:00,
2013-07-18 17:32:00,88.0,72.0,29.83,NW,313,8.0,14.0,60,0.00,,,0.00,,2013-07-18 22:32:00,
2013-07-18 17:43:00,88.0,72.0,29.82,NW,315,8.0,17.0,59,0.00,,,0.00,,2013-07-18 22:43:00,
2013-07-18 17:53:00,88.0,71.0,29.82,NW,311,6.0,14.0,57,0.00,,,0.00,,2013-07-18 22:53:00,
2013-07-18 18:02:00,89.0,71.0,29.82,NW,317,8.0,17.0,55,0.00,,,0.00,,2013-07-18 23:02:00,
2013-07-18 18:11:00,88.0,68.0,29.82,West,263,9.0,20.0,52,0.00,,,0.00,,2013-07-18 23:11:00,
2013-07-18 18:22:00,88.0,69.0,29.82,NW,313,6.0,15.0,54,0.00,,,0.00,,2013-07-18 23:22:00,
2013-07-18 18:32:00,88.0,70.0,29.82,WNW,296,6.0,14.0,55,0.00,,,0.00,,2013-07-18 23:32:00,
2013-07-18 18:42:00,88.0,70.0,29.82,NW,311,9.0,17.0,55,0.00,,,0.00,,2013-07-18 23:42:00,
2013-07-18 18:52:00,88.0,69.0,29.82,NNW,340,9.0,17.0,54,0.00,,,0.00,,2013-07-18 23:52:00,
2013-07-18 19:01:00,87.0,68.0,29.82,WNW,301,12.0,19.0,54,0.00,,,0.00,,2013-07-19 00:01:00,
2013-07-18 19:11:00,87.0,69.0,29.82,NW,314,8.0,16.0,55,0.00,,,0.00,,2013-07-19 00:11:00,
2013-07-18 19:22:00,87.0,69.0,29.82,NW,308,7.0,15.0,56,0.00,,,0.00,,2013-07-19 00:22:00,
2013-07-18 19:32:00,87.0,67.0,29.82,NW,322,8.0,14.0,52,0.00,,,0.00,,2013-07-19 00:32:00,
2013-07-18 19:43:00,86.0,63.0,29.82,NNW,329,9.0,18.0,47,0.00,,,0.00,,2013-07-19 00:43:00,
2013-07-18 19:52:00,86.0,63.0,29.83,NW,324,8.0,18.0,47,0.00,,,0.00,,2013-07-19 00:52:00,
2013-07-18 20:01:00,86.0,63.0,29.83,WNW,300,7.0,13.0,47,0.00,,,0.00,,2013-07-19 01:01:00,
2013-07-18 20:11:00,86.0,64.0,29.83,NW,325,6.0,12.0,48,0.00,,,0.00,,2013-07-19 01:11:00,
2013-07-18 20:22:00,85.0,64.0,29.83,NNW,331,6.0,11.0,49,0.00,,,0.00,,2013-07-19 01:22:00,
2013-07-18 20:32:00,85.0,64.0,29.83,NNW,327,4.0,9.0,50,0.00,,,0.00,,2013-07-19 01:32:00,
2013-07-18 20:42:00,85.0,65.0,29.83,NW,306,2.0,4.0,51,0.00,,,0.00,,2013-07-19 01:42:00,
2013-07-18 20:52:00,84.0,64.0,29.83,NW,315,2.0,6.0,52,0.00,,,0.00,,2013-07-19 01:52:00,
2013-07-18 21:01:00,84.0,66.0,29.84,West,279,1.0,5.0,54,0.00,,,0.00,,2013-07-19 02:01:00,
2013-07-18 21:11:00,83.0,66.0,29.84,WSW,257,2.0,4.0,56,0.00,,,0.00,,2013-07-19 02:11:00,
2013-07-18 21:22:00,82.0,66.0,29.84,NW,307,2.0,6.0,58,0.00,,,0.00,,2013-07-19 02:22:00,
2013-07-18 21:32:00,81.0,65.0,29.85,NNW,330,4.0,11.0,58,0.00,,,0.00,,2013-07-19 02:32:00,
2013-07-18 21:42:00,80.0,64.0,29.85,NW,315,6.0,10.0,58,0.00,,,0.00,,2013-07-19 02:42:00,
2013-07-18 21:52:00,79.0,63.0,29.85,NNW,328,3.0,8.0,59,0.00,,,0.00,,2013-07-19 02:52:00,
2013-07-18 22:01:00,78.0,63.0,29.85,NW,317,3.0,6.0,60,0.00,,,0.00,,2013-07-19 03:01:00,
2013-07-18 22:11:00,77.0,62.0,29.86,NW,306,4.0,8.0,60,0.00,,,0.00,,2013-07-19 03:11:00,
2013-07-18 22:22:00,76.0,61.0,29.86,WNW,302,3.0,9.0,60,0.00,,,0.00,,2013-07-19 03:22:00,
2013-07-18 22:32:00,75.0,61.0,29.87,NW,321,2.0,6.0,61,0.00,,,0.00,,2013-07-19 03:32:00,
2013-07-18 22:42:00,74.0,59.0,29.88,NW,306,4.0,8.0,60,0.00,,,0.00,,2013-07-19 03:42:00,
2013-07-18 22:52:00,74.0,59.0,29.88,NNW,331,7.0,11.0,60,0.00,,,0.00,,2013-07-19 03:52:00,
2013-07-18 23:02:00,74.0,59.0,29.89,NW,325,6.0,13.0,60,0.00,,,0.00,,2013-07-19 04:02:00,
2013-07-18 23:12:00,75.0,61.0,29.89,NW,320,9.0,19.0,62,0.00,,,0.00,,2013-07-19 04:12:00,
2013-07-18 23:22:00,75.0,62.0,29.90,NW,313,13.0,20.0,64,0.00,,,0.00,,2013-07-19 04:22:00,
2013-07-18 23:33:00,74.0,62.0,29.90,NW,317,12.0,21.0,67,0.00,,,0.00,,2013-07-19 04:33:00,
2013-07-18 23:43:00,74.0,63.0,29.91,NNW,348,11.0,20.0,68,0.00,,,0.00,,2013-07-19 04:43:00,
2013-07-18 23:52:00,73.0,62.0,29.91,North,360,11.0,17.0,68,0.00,,,0.00,,2013-07-19 04:52:00,